Location: ?????
(32.7281°N, 34.9563°E)
Time: 11:02:38
(UTC+00:00)

Atlas Centaur 2 - Pass Details

Date: 29 October 2020
Orbit: 459 x 1309 km, 30.4° (Epoch: 26 November)

Event Time Altitude Azimuth Distance (km) Brightness Sun altitude
Rises 17:18:25 0° 272° (W) 4,205 7.0 -31.4°
Reaches altitude 10° 17:21:18 10° 270° (W) 3,285 6.1 -32.0°
Maximum altitude 17:29:47 73° 188° (S) 1,354 3.0 -33.7°
Enters shadow 17:29:52 73° 183° (S) 1,354 3.0 -33.8°
